Regional Weather Roundup
Issued by NWS

Home | Current Version | Previous Version | Graphics & Text | Print | Product List | Glossary On
Versions: 1 2 3 4 5 6 7 8 9 10 11 12 13 14 15 16 17 18 19 20 21 22 23 24 25 26 27 28 29 30 31 32 33 34 35 36 37 38 39 40 41 42 43 44 45 46 47 48 49 50
000
ASUS43 KLMK 230702
RWRKY
KENTUCKY REGIONAL WEATHER ROUNDUP
NATIONAL WEATHER SERVICE LOUISVILLE KY
300 AM EDT SUN JUL 23 2017

NOTE "FAIR" INDICATES FEW OR NO CLOUDS BELOW 12,000 FEET
WITH NO SIGNIFICANT WEATHER AND/OR OBSTRUCTIONS TO VISIBILITY.

KYZ001>023-026-027-061>063-070>075-230800-
WESTERN AND SOUTH CENTRAL KENTUCKY

CITY           SKY/WX    TMP DP  RH WIND       PRES   REMARKS
PADUCAH        PTCLDY    81  74  79 SW6       29.84F
HENDERSON      CLEAR     82  76  81 SW8       29.80F
OWENSBORO      PTCLDY    82  75  79 SW9       29.81F
HOPKINSVILLE   CLEAR     80  76  87 SW10      29.86F
BOWLING GREEN  PTCLDY    82  76  81 SW9       29.87F
GLASGOW        NOT AVBL
$$

KYZ024-025-028>034-038-045-046-053-230800-
NORTH CENTRAL KENTUCKY

CITY           SKY/WX    TMP DP  RH WIND       PRES   REMARKS
LOUISVILLE/SDF TSTM      75  68  78 NW20G30   29.88R
LOUISVILLE/LOU LGT RAIN  75  72  90 NW10G23   29.86R FOG
FORT KNOX      MOCLDY    81  73  78 N15       29.85R
$$

KYZ035>037-039>044-047>052-055>060-089>105-230800-
NORTHEAST KENTUCKY

CITY           SKY/WX    TMP DP  RH WIND       PRES   REMARKS
LEXINGTON      CLOUDY    82  73  74 SW7       29.87F
COVINGTON      CLOUDY    72  72 100 SE6       29.81F
FRANKFORT      CLOUDY    82  72  71 SW12      29.84S
$$

KYZ054-064>069-076>088-106>120-230800-
SOUTHEAST KENTUCKY

CITY           SKY/WX    TMP DP  RH WIND       PRES   REMARKS
JACKSON        TSTM      69  66  90 CALM      29.97R FOG
LONDON         CLEAR     77  72  84 S3        29.91F
SOMERSET       CLOUDY    75  73  94 CALM      29.91F
MIDDLESBORO    CLEAR     74  74  99 CALM      29.93F
MONTICELLO     SUNNY     77  74  90 W12       29.92F
$$




USA.gov is the U.S. government's official web portal to all federal, state and local government web resources and services.